Location: Bielsko Biala
(49.8231°N, 19.0481°E)
Time: 11:25:36
(UTC+01:00)

ISS - Visible Passes

Search period start: 13 December 2018 00:00
Search period end: 23 December 2018 00:00
Orbit: 401 x 408 km, 51.6° (Epoch: 13 December)

Date Brightness Start Highest point End Pass type
(mag) Time Alt. Az. Time Alt. Az. Time Alt. Az.
13 Dec -1.9 16:31:04 10° W 16:34:03 33° SSW 16:37:01 10° SSE visible
14 Dec -0.4 17:16:51 10° WSW 17:17:51 11° SW 17:18:52 10° SSW visible
15 Dec -0.7 16:23:36 10° W 16:25:55 18° SW 16:28:13 10° S visible
